Home > Weather > Makassar > Past weeks

Flag for Indonesia Weather for the Past 2 Weeks in Makassar, South Sulawesi, Indonesia

Now
81 °F

Passing clouds.


Feels Like: 88 °F
Forecast: 81 / 89 °F
Wind: 3 mph from Southeast

Location: Ujung Pandang / Hasanuddin

Current Time: May 4, 2016 at 10:15:25 PM

Latest Report: May 4, 2016 at 9:30 PM


Visibility: N/A

Pressure: 29.83 "Hg

Humidity: 94%

Dew Point: 79 °F

Location of MakassarLocation

Historic Weather in Makassar — Graph

°F

Makassar Temperature Yesterday

Maximum temperature yesterday: 93 °F (at 12:00 PM)
Minimum temperature yesterday: 73 °F (at 3:30 AM)
Average temperature yesterday: 83 °F

High & Low Weather Summary for the Past Weeks

 TemperatureHumidityPressure
High95 °F (Apr 30, 12:30 PM)100% (Apr 19, 9:00 PM)29.89 "Hg (Apr 19, 9:00 PM)
Low73 °F (May 3, 3:30 AM)53% (Apr 21, 2:00 PM)29.71 "Hg (Apr 24, 3:30 PM)
Average82 °F86%29.82 "Hg
* Reported Apr 19 9:00 PM — May 4 9:00 PM, Makassar, Weather by CustomWeather, © 2016

Note: Actual official high and low records may vary slightly from our data, if they occured in-between our weather recording intervals... More about our weather records

Advertising

Makassar Weather History for the Previous 24 Hours

Scroll right to see more
 ConditionsComfort  
Time TempWeatherWind HumidityBarometerVisibility
9:00 PM
Wed, May 4
81 °FPassing clouds.1 mph100%29.83 "Hg5 mi
8:00 PM81 °FPassing clouds.2 mph94%29.80 "Hg5 mi
7:00 PM81 °FPassing clouds.2 mph94%29.77 "Hg5 mi
6:30 PM82 °FPassing clouds.3 mph84%29.77 "Hg5 mi
6:00 PM82 °FPassing clouds.3 mph84%29.74 "Hg5 mi
5:30 PM84 °FPassing clouds.3 mph79%29.74 "Hg6 mi
5:00 PM82 °FPassing clouds.6 mph84%29.74 "Hg6 mi
4:30 PM82 °FLight rain. Scattered clouds.5 mph84%29.74 "Hg6 mi
4:00 PM84 °FThunderstorms. Scattered clouds.6 mph79%N/A6 mi
3:30 PM88 °FThunderstorms. Scattered clouds.5 mph75%29.74 "Hg6 mi
3:00 PM88 °FThunderstorms. Scattered clouds.6 mph75%29.74 "Hg6 mi
2:00 PM91 °FThunderstorms. Passing clouds.8 mph67%N/A6 mi
1:00 PM91 °FPassing clouds.8 mph63%29.77 "HgN/A
12:30 PM91 °FPassing clouds.8 mph67%29.80 "HgN/A
12:00 PM91 °FPassing clouds.6 mph67%29.80 "HgN/A
11:30 AM91 °FPassing clouds.7 mph67%29.83 "HgN/A
11:00 AM90 °FPassing clouds.7 mph71%29.83 "HgN/A
10:30 AM90 °FPassing clouds.5 mph67%29.86 "HgN/A
10:00 AM88 °FPassing clouds.6 mph70%29.86 "HgN/A
9:30 AM88 °FPassing clouds.5 mph75%29.86 "HgN/A
9:00 AM88 °FPassing clouds.2 mph70%29.86 "HgN/A
8:30 AM86 °FPassing clouds.2 mph70%29.86 "HgN/A
8:00 AM82 °FPassing clouds.3 mph79%29.86 "HgN/A
7:30 AM82 °FPassing clouds.2 mph79%29.86 "HgN/A
7:00 AM79 °FPassing clouds.3 mph89%29.86 "HgN/A
6:00 AM77 °FPassing clouds.3 mph89%29.83 "Hg5 mi
5:30 AM77 °FPassing clouds.3 mph94%29.83 "Hg5 mi
5:00 AM77 °FPassing clouds.2 mph94%29.83 "Hg5 mi
4:30 AM77 °FPassing clouds.2 mph94%29.80 "Hg5 mi
4:00 AM77 °FPassing clouds.3 mph89%29.80 "Hg5 mi
3:30 AM77 °FPassing clouds.3 mph89%29.80 "Hg5 mi
3:00 AM77 °FPassing clouds.5 mph94%29.80 "Hg5 mi
2:30 AM77 °FPassing clouds.3 mph94%29.80 "Hg5 mi
2:00 AM79 °FPassing clouds.3 mph94%29.83 "Hg5 mi
1:30 AM79 °FThundershowers. Passing clouds.3 mph100%29.83 "Hg5 mi
1:00 AM79 °FThundershowers. Passing clouds.3 mph100%29.83 "Hg5 mi
12:30 AM79 °FThundershowers. Passing clouds.2 mph100%29.86 "Hg5 mi
12:00 AM79 °FThundershowers. Passing clouds.2 mph100%29.86 "Hg5 mi
11:30 PM
Tue, May 3
81 °FThundershowers. Passing clouds.2 mph100%29.86 "Hg5 mi
11:00 PM81 °FThundershowers. Passing clouds.3 mph100%29.86 "Hg5 mi
10:30 PM81 °FPassing clouds.3 mph100%29.86 "Hg5 mi
10:00 PM81 °FPassing clouds.3 mph100%29.86 "Hg5 mi
Weather by CustomWeather, © 2016

See weather overviewHow to use our weather pages